Location: Springfield
(37.2150°N, 93.2980°W)
Time: 01:23:09
(UTC-05:00)

Cosmos 1933 Rocket - Pass Details

Date: 19 April 2018
Orbit: 606 x 631 km, 82.5° (Epoch: 25 May)

Event Time Altitude Azimuth Distance (km) Brightness Sun altitude
Rises 21:35:46 0° 356° (N) 2,898 7.5 -19.7°
Reaches altitude 10° 21:38:02 10° 359° (N) 1,984 6.6 -20.1°
Maximum altitude 21:42:23 66° 81° (E) 672 3.5 -20.8°
Enters shadow 21:42:59 58° 125° (SE) 716 3.5 -20.9°
